Location: Bednik
(45.3500°N, 16.3833°E)
Time: 02:41:04
(UTC+00:00)

Intercosmos 25 - Pass Details

Date: 08 August 2020
Orbit: 439 x 2877 km, 82.6° (Epoch: 25 September)

Event Time Altitude Azimuth Distance (km) Brightness Sun altitude
Rises 19:50:47 0° 347° (NNW) 3,367 8.3 -15.3°
Reaches altitude 10° 19:53:38 10° 342° (NNW) 2,141 7.3 -15.7°
Maximum altitude 19:57:51 45° 270° (W) 735 4.3 -16.2°
Enters shadow 20:00:30 14° 199° (SSW) 1,385 5.1 -16.6°
